Tucson, Arizona, United States (85701)
Lat: 32.22N, Lon: 110.93W
Wx Zone: AZZ504
Local Info
Past Weather Observations for Saturday, August 30, 2014

NOTE: This archive is for the closest National Weather Service station to Tucson. Information may differ from the station used for current weather conditions.

Click here for Long-term Archive

Time Weather Temperature Dewpoint Humidity Pressure Winds Precip Visibility
23:58
Clear
81°F / 27°C 48°F / 9°C 32% 29.92 in
(1013 mb)
SE 6.9 mph
(SE 11 kph)
- 10SM
22:58
Clear
84°F / 29°C 46°F / 8°C 27% 29.92 in
(1013 mb)
ESE 4.6 mph
(ESE 7 kph)
- 10SM
21:58
Clear
84°F / 29°C 45°F / 7°C 25% 29.89 in
(1012 mb)
SSE 6.9 mph
(SSE 11 kph)
- 10SM
20:58
Clear
88°F / 31°C 43°F / 6°C 21% 29.89 in
(1012 mb)
SSW 5.8 mph
(SSW 9 kph)
- 10SM
19:58
Clear
91°F / 33°C 43°F / 6°C 18% 29.86 in
(1011 mb)
SW 5.8 mph
(SW 9 kph)
- 10SM
18:58
Clear
95°F / 35°C 41°F / 5°C 15% 29.83 in
(1010 mb)
Variable 6.9 mph
(Variable 11 kph)
- 10SM
17:58
Clear
100°F / 38°C 39°F / 4°C 12% 29.83 in
(1010 mb)
WNW 9.2 mph
(WNW 15 kph)
- 10SM
17:28
Clear
100°F / 38°C 39°F / 4°C 12% 29.83 in
(1010 mb)
SSW 16.1 mph
(SSW 26 kph)
- 10SM
16:58
Clear
100°F / 38°C 39°F / 4°C 12% 29.83 in
(1010 mb)
WNW 4.6 mph
(WNW 7 kph)
- 10SM
15:58
Clear
102°F / 39°C 37°F / 3°C 11% 29.83 in
(1010 mb)
Variable 2.3 mph
(Variable 4 kph)
- 10SM
14:58
Clear
102°F / 39°C 41°F / 5°C 12% 29.86 in
(1011 mb)
SSW 5.8 mph
(SSW 9 kph)
- 10SM
14:53
Clear
102°F / 39°C 39°F / 4°C 11% 29.86 in
(1011 mb)
SW 11.5 mph
(SW 19 kph)
- 10SM
13:58
Clear
100°F / 38°C 41°F / 5°C 13% 29.89 in
(1012 mb)
SE 8.1 mph
(SE 13 kph)
- 10SM
12:58
Clear
100°F / 38°C 43°F / 6°C 14% 29.92 in
(1013 mb)
Variable 3.5 mph
(Variable 6 kph)
- 10SM
11:58
Clear
97°F / 36°C 41°F / 5°C 14% 29.92 in
(1013 mb)
S 8.1 mph
(S 13 kph)
- 10SM
10:58
Clear
97°F / 36°C 45°F / 7°C 17% 29.95 in
(1014 mb)
E 1.2 mph
(E 2 kph)
- 10SM
09:58
Clear
91°F / 33°C 46°F / 8°C 21% 29.95 in
(1014 mb)
NNW 2.3 mph
(NNW 4 kph)
- 10SM
06:58
Clear
73°F / 23°C 46°F / 8°C 38% 29.95 in
(1014 mb)
SSE 9.2 mph
(SSE 15 kph)
- 10SM
05:58
Clear
73°F / 23°C 46°F / 8°C 38% 29.95 in
(1014 mb)
SSE 10.4 mph
(SSE 17 kph)
- 10SM
04:58
Clear
73°F / 23°C 46°F / 8°C 38% 29.92 in
(1013 mb)
SE 10.4 mph
(SE 17 kph)
- 10SM
03:58
Clear
73°F / 23°C 45°F / 7°C 36% 29.92 in
(1013 mb)
SE 10.4 mph
(SE 17 kph)
- 10SM
02:58
Clear
75°F / 24°C 46°F / 8°C 36% 29.92 in
(1013 mb)
SE 6.9 mph
(SE 11 kph)
- 10SM
01:58
Clear
75°F / 24°C 46°F / 8°C 36% 29.92 in
(1013 mb)
SE 9.2 mph
(SE 15 kph)
- 10SM
00:58
Clear
77°F / 25°C 46°F / 8°C 34% 29.92 in
(1013 mb)
SE 8.1 mph
(SE 13 kph)
- 10SM
Time Weather Temperature Dewpoint Humidity Pressure Winds Precip Visibility


Weather for websites

WeatherForYou.com, LLC is not responsible for any damages or problems caused by this service. Current weather conditions are obtained from the closest station including government and personal stations which may have varying degrees of accuracy. Weather forecasts are derived from the NOAA NDFD. Like all things, this site belongs to Jesus Christ... He just trusts me to maintain it. If you have any questions or comments email webmaster@weatherforyou.com

Copyright © 2014, WeatherForYou.com LLC. All rights reserved.